User: anonymous   Login
Location: Arroyo Retuerta
(40.5469°N, 4.3534°W)
Time: 03:23:50
(UTC+00:00)
Language:

Cosmos 1378 - Orbit

View from above orbital plane
View from above orbital plane
View from above satellite
View from above satellite

Ground track
Ground track

The orbit data is extracted from the following two-line orbital elements,

1 13271U 82059A   20221.87806661 +.00000667 +00000-0 +26944-4 0  9995
2 13271 082.4669 140.1622 0005576 228.2204 131.8557 15.22997621084488
Epoch (UTC): 08 August 2020 21:04:24
Eccentricity: 0.0005576
inclination: 82.4669°
perigee height: 493 km
apogee height: 500 km
right ascension of ascending node: 140.1622°
argument of perigee: 228.2204°
revolutions per day: 15.22997621
mean anomaly at epoch: 131.8557°
orbit number at epoch: 8448

The dashed part of the orbit path shows where the satellite is in the earth's shadow,  

DLR